C/2004 K3 (LINEAR)                                                    

Epoch 2004 July 14.0 TT = JDT 2453200.5  

T 2004 June 30.45783 TT                                 Nakano

q   1.1033499            (2000.0)            P               Q

z  +0.0172569      Peri.   60.49233     -0.27596313     -0.26705138

 +/-0.0001333      Node   275.53704     -0.79969597     +0.59671943

e   0.9809596      Incl.  111.92817     +0.53322670     +0.75670964

P 441 years

From 82 observations 2004 May 29-July 16, mean residual 0".69.

Residuals in seconds of arc 

2004/                     040603 649  0.4+  0.2-    040610 926  0.0   0.5+  

040529 704  0.2-  0.4-    040603 649  1.9+  0.4-    040611 926  0.0   0.9-  

040529 704  0.2-  0.1+    040603 649  0.0   1.2+    040611 926  0.9-  0.8-  

040529 704  1.1-  0.8-    040603 649  0.1+  0.1+    040612 926  0.3+  0.7+  

040529 704  0.3+  1.0-    040603 G90  0.0   0.2+    040612 926  0.2+  0.6+  

040529 704  0.8+  1.3-    040603 G90  0.1+  0.6+    040612 926  0.6-  0.6+  

040530 704  1.0-  0.7+    040603 G90  0.6-  0.7+    040613 360  0.1-  0.4+  

040530 704  0.3-  0.1-    040603 G90  0.7+  0.1+    040613 360  0.3+  0.2+  

040530 704  0.3-  1.5-    040603 673  0.4-  0.5+    040613 360  0.0   0.7+  

040530 704  0.9-  0.5+    040603 673  1.2+  1.1-    040613 D74 (3.5+  0.6+) 

040531 J95  0.6-  0.2-    040603 673 (2.6+  1.1+)   040613 D74  1.2-  0.9-  

040531 J95  0.6-  0.2+    040603 926  0.1+  0.1+    040621 461  0.3-  0.0   

040531 J95  0.6-  1.1-    040603 926  0.2+  0.4-    040621 461  0.6-  0.5-  

040531 854  1.3-  0.5+    040603 926  0.3+  0.1+    040621 461  0.5-  0.3+  

040531 854  0.4-  1.5+    040603 926  0.3-  1.2+    040626 213  1.7+  0.3-  

040531 854  1.2+  0.2+    040605 926  1.0-  0.3-    040627 J95  0.3+  0.1-  

040531 926  1.0+  0.2+    040607 J95  0.0   0.0     040627 J95  0.2-  0.4-  

040531 926  0.5+  0.2-    040607 J95  0.1-  0.1+    040627 J95  0.1-  0.5+  

040531 926  0.1+  1.5+    040607 J95  0.7-  0.2-    040630 213  0.1-  1.3+  

040531 G70  0.7-  0.6-    040607 926  0.1+  1.6-    040706 704  0.3-  0.1-  

040601 926  0.9+  0.0     040607 926  1.2+  0.8+    040706 704  0.1+  0.6-  

040601 926  0.7-  0.8+    040607 204 (3.5-  0.2+)   040706 704  1.5+  0.2-  

040601 H06 (1.8+  5.4-)   040608 204  0.1+  0.4-    040706 704  0.1+  0.0   

040601 H06 (1.6+  5.7-)   040608 J95  0.1-  0.3-    040713 360  0.2-  0.2+  

040601 H06 (2.0+  6.5-)   040608 J95  0.1+  0.5-    040713 360  0.8-  0.1-  

040601 G70  0.3+  1.7+ Y  040608 J95  0.5+  0.1+    040713 360  1.1-  0.2-  

040601 G70  0.6+  0.9+ Y  040609 926  0.2+  1.1-    040716 215 (2.3+  3.9+) 

040601 G70 (2.1+  1.0+)Y  040609 926  0.5+  0.6+    040716 215  0.5+  0.1+  

040602 926  0.5+  0.3+    040609 926  0.5-  0.3+    040716 215  0.4+  0.3-  

040602 926  1.2+  0.5-    040610 926  0.3+  0.3-                            

040602 926  1.0-  1.8-    040610 926  0.2+  1.1-                            



NAKANO

         **** Don't distribute anyone except personal use only ****

                (C) Copyright 2005 OAA/ComputingSection

write mail from CFAD0::NAKANO on 2005-02-04 04:54:38(JST).

 

    C/2004 K3 (LINEAR)                                                    

T 2004 June 30.46288 TT                                 Nakano

q   1.1033203            (2000.0)            P               Q

z  +0.0174964      Peri.   60.49554     -0.27597881     -0.26700213

 +/-0.0001635      Node   275.53532     -0.79965602     +0.59677097

e   0.9806958      Incl.  111.92711     +0.53327849     +0.75668638

From 80 observations 2004 May 29-July 13.

         **** Don't distribute anyone except personal use only ****

                (C) Copyright 2004 OAA/ComputingSection

write mail from CFAD0::NAKANO on 2004-08-04 23:10:27(JST).

---------------------------------------------------------------------------

    Syuichi Nakano, P. O. Box No. 32, Sumoto, Hyogo-Ken, 656-8691 Japan

     An Associate of the Minor Planet Center   snakano@cfa.harvard.edu

         http://www.oaa.gr.jp/   08-04-2004, 23:27:51 +09:00 (JST)

               OS/2 and Digital UNIX in Operating Systems

             **** Please reply ONLY to nakano@oaa.gr.jp ****









◎C/2004 K3の軌道と位置予報です



  6月30日までの観測が報告され,彗星は,周期が 450年ほどの長期彗星である

ことが判明しました.なお,最終観測は,EMESの前回の軌道(5/29-6/13;CMES 

YC2429)から,25"のずれがありました.



    C/2004 K3 (LINEAR)                                                    

T 2004 June 30.45333 TT                                 Nakano

q   1.1033710            (2000.0)            P               Q

z  +0.0170979      Peri.   60.48880     -0.27594598     -0.26708811

 +/-0.0004566      Node   275.53805     -0.79973655     +0.59666622

e   0.9811346      Incl.  111.92877     +0.53317471     +0.75673863

P 447 years

From 72 observations 2004 May 29-June 30.

 

Date/        TT  R.A.(2000) Decl.     Delta   r     Daily motion  Mag.  Moon Age

              h    h  m       。  ,                      ,  / PA 。  m1      。

2004 July  1 12  11 36.11  +64 03.8   1.117  1.103    50.7 / 212  18.7  115  .98

           2 12  11 32.16  +63 20.5   1.142  1.104    48.4 / 211  18.7  123 1.00

           3 12  11 28.58  +62 38.6   1.167  1.104    46.3 / 210  18.8  130  .98

           4 12  11 25.33  +61 58.3   1.192  1.105    44.3 / 209  18.8  133  .94

           5 12  11 22.36  +61 19.3   1.217  1.106    42.5 / 208  18.9  134  .87

           6 12  11 19.65  +60 41.7   1.241  1.108    40.7 / 207  18.9  131  .78

           7 12  11 17.16  +60 05.3   1.266  1.109    39.1 / 207  19.0  125  .69

           8 12  11 14.86  +59 30.3   1.290  1.111    37.6 / 206  19.0  118  .58

           9 12  11 12.75  +58 56.4   1.314  1.113    36.1 / 205  19.1  110  .48

          10 12  11 10.79  +58 23.6   1.338  1.115    34.8 / 205  19.1  102  .38

          11 12  11 08.98  +57 52.0   1.362  1.118    33.5 / 204  19.2   93  .29

          12 12  11 07.29  +57 21.3   1.386  1.120    32.3 / 203  19.2   84  .21

          13 12  11 05.72  +56 51.7   1.409  1.123    31.1 / 203  19.3   76  .14

          14 12  11 04.26  +56 23.0   1.432  1.127    30.0 / 202  19.3   67  .08

          15 12  11 02.90  +55 55.2   1.455  1.130    29.0 / 202  19.3   59  .04

          16 12  11 01.62  +55 28.3   1.478  1.133    28.0 / 201  19.4   51  .01

          17 12  11 00.43  +55 02.2   1.501  1.137    27.1 / 201  19.4   45  .00

          18 12  10 59.31  +54 36.8   1.523  1.141    26.2 / 201  19.5   40  .01

          19 12  10 58.25  +54 12.2   1.545  1.146    25.4 / 200  19.5   38  .04

          20 12  10 57.27  +53 48.4   1.567  1.150    24.6 / 200  19.6   39  .09

          21 12  10 56.34  +53 25.2   1.588  1.155    23.8 / 199  19.6   44  .15

          22 12  10 55.46  +53 02.7   1.609  1.159    23.1 / 199  19.7   51  .23

          23 12  10 54.64  +52 40.8   1.630  1.164    22.4 / 199  19.7   59  .33

          24 12  10 53.86  +52 19.5   1.651  1.170    21.8 / 198  19.8   69  .43

          25 12  10 53.13  +51 58.8   1.671  1.175    21.2 / 198  19.8   80  .54

          26 12  10 52.44  +51 38.6   1.691  1.181    20.5 / 197  19.9   91  .65

          27 12  10 51.78  +51 19.0   1.710  1.186    20.0 / 197  19.9  102  .76

          28 12  10 51.16  +50 59.9   1.730  1.192    19.4 / 197  20.0  114  .85

          29 12  10 50.58  +50 41.3   1.748  1.198    18.9 / 196  20.0  125  .92

          30 12  10 50.02  +50 23.2   1.767  1.205    18.4 / 196  20.0  135  .97

          31 12  10 49.50  +50 05.5   1.785  1.211    17.9 / 196  20.1  143 1.00

     Aug.  1 12  10 49.00  +49 48.3   1.803  1.218    17.4 / 195  20.1  146  .99

NAKANO

         **** Don't distribute anyone except personal use only ****

                (C) Copyright 2004 OAA/ComputingSection

write mail from CFAD0::NAKANO on 2004-07-03 21:34:32(JST).

 

◎C/2004 K3の軌道と予報位置です



  那賀川の堀寿夫氏と前野拓氏から6月13日の我が国で初めての観測が

報告されました.彼らの CCD全光度は,18.4等でした.



    C/2004 K3 (LINEAR)                                                    

T 2004 June 30.03723 TT                                 Nakano

q   1.1056103            (2000.0)            P               Q

                   Peri.   60.18897     -0.27446777     -0.27080306

                   Node   275.65386     -0.80328666     +0.59201324

e   1.0            Incl.  111.99941     +0.52858111     +0.75906918

From 58 observations 2004 May 29-June 13.

 

Date/        TT  R.A.(2000) Decl.     Delta   r     Daily motion  Mag.  Moon Age

              h    h  m       。  ,                      ,  / PA 。  m1      。

2004 June 15 12  15 23.88  +76 11.0   0.741  1.131   118.4 / 268  18.4   82  .05

          16 12  14 51.19  +75 59.3   0.762  1.128   111.8 / 260  18.4   78  .02

          17 12  14 21.66  +75 33.4   0.784  1.124   105.6 / 253  18.5   74  .00

          18 12  13 55.70  +74 56.8   0.806  1.122    99.8 / 246  18.5   69  .01

          19 12  13 33.25  +74 12.6   0.828  1.119    94.3 / 241  18.6   65  .03

          20 12  13 14.01  +73 23.5   0.851  1.117    89.1 / 236  18.6   62  .06

          21 12  12 57.57  +72 31.3   0.875  1.114    84.3 / 232  18.7   60  .12

          22 12  12 43.50  +71 37.5   0.899  1.112    79.8 / 229  18.7   59  .19

          23 12  12 31.41  +70 43.3   0.923  1.111    75.6 / 226  18.8   60  .27

          24 12  12 20.98  +69 49.2   0.947  1.109    71.7 / 223  18.8   62  .37

          25 12  12 11.92  +68 55.9   0.972  1.108    68.0 / 221  18.9   66  .47

          26 12  12 04.00  +68 03.6   0.996  1.107    64.6 / 219  18.9   72  .58

          27 12  11 57.05  +67 12.7   1.021  1.106    61.4 / 217  19.0   79  .68

          28 12  11 50.90  +66 23.2   1.046  1.106    58.4 / 215  19.0   87  .78

          29 12  11 45.44  +65 35.2   1.071  1.106    55.7 / 214  19.1   96  .87

          30 12  11 40.56  +64 48.8   1.096  1.106    53.1 / 213  19.1  106  .94

     July  1 12  11 36.18  +64 03.9   1.121  1.106    50.7 / 212  19.2  115  .98

           2 12  11 32.24  +63 20.6   1.146  1.106    48.4 / 211  19.2  123 1.00

           3 12  11 28.66  +62 38.8   1.171  1.107    46.3 / 210  19.3  130  .98

           4 12  11 25.41  +61 58.4   1.196  1.108    44.3 / 209  19.3  133  .94

           5 12  11 22.45  +61 19.4   1.221  1.109    42.5 / 208  19.4  134  .87

           6 12  11 19.74  +60 41.8   1.246  1.111    40.7 / 207  19.4  131  .78

           7 12  11 17.25  +60 05.5   1.270  1.112    39.1 / 206  19.5  125  .69

           8 12  11 14.96  +59 30.5   1.295  1.114    37.5 / 206  19.5  118  .58

           9 12  11 12.85  +58 56.6   1.319  1.116    36.1 / 205  19.6  110  .48

          10 12  11 10.90  +58 23.9   1.343  1.119    34.7 / 205  19.6  102  .38

          11 12  11 09.09  +57 52.3   1.367  1.121    33.4 / 204  19.7   93  .29

          12 12  11 07.41  +57 21.7   1.391  1.124    32.2 / 203  19.7   84  .21

          13 12  11 05.85  +56 52.0   1.414  1.127    31.1 / 203  19.8   76  .14

          14 12  11 04.39  +56 23.4   1.438  1.131    30.0 / 202  19.8   67  .08

          15 12  11 03.03  +55 55.6   1.461  1.134    29.0 / 202  19.9   59  .04

NAKANO

         **** Don't distribute anyone except personal use only ****

                (C) Copyright 2004 OAA/ComputingSection

write mail from CFAD0::NAKANO on 2004-06-15 04:10:38(JST).

 



戻ります。